Regional Weather Roundup
Issued by NWS

Home | Current Version | Previous Version | Graphics & Text | Print | Product List | Glossary On
Versions: 1 2 3 4 5 6 7 8 9 10 11 12 13 14 15 16 17 18 19 20 21 22 23 24 25 26 27 28 29 30 31 32 33 34 35 36 37 38 39 40 41 42 43 44 45 46 47 48 49 50
530
ASUS43 KBIS 231202
RWRND

NORTH DAKOTA REGIONAL WEATHER ROUNDUP
NATIONAL WEATHER SERVICE BISMARCK ND
700 AM CDT MON OCT 23 2017

NOTE: "FAIR" INDICATES FEW OR NO CLOUDS BELOW 12,000 FEET WITH NO
SIGNIFICANT WEATHER AND/OR OBSTRUCTIONS TO VISIBILITY.


NDZ001>003-009>011-017-231300-
NORTHWEST NORTH DAKOTA

CITY           SKY/WX    TMP DP  RH WIND       PRES   REMARKS
WILLISTON      CLEAR     43  34  70 NW10      30.05R
MINOT          CLOUDY    42  36  79 W21G30    29.94R
MINOT AFB      CLOUDY    41  36  82 NW17      29.92R
$$

NDZ018>021-031>035-040>046-231300-
SOUTHWEST NORTH DAKOTA

CITY           SKY/WX    TMP DP  RH WIND       PRES   REMARKS
BISMARCK       MOCLDY    49  36  61 NW20G35   29.95R
6HR MIN TEMP:  47; 6HR MAX TEMP:  55; 6HR PCP:  0.01;

DICKINSON      CLEAR     43  33  68 W24G32    30.02R
GARRISON         N/A     42  37  82 NW20G39   29.97R
6HR MIN TEMP:  42; 6HR MAX TEMP:  50;

HETTINGER ARPT CLEAR     43  31  62 W23G30    30.08R
$$

NDZ004>008-012>016-024-026-027-054-231300-
NORTHEAST NORTH DAKOTA

CITY           SKY/WX    TMP DP  RH WIND       PRES   REMARKS
GRAND FORKS    CLOUDY    48  41  76 NW18G29   29.70R
DEVILS LAKE    LGT RAIN  42  40  92 NW24G30   29.83R
$$

NDZ022-023-025-028>030-036>039-047>053-231300-
SOUTHEAST NORTH DAKOTA

CITY           SKY/WX    TMP DP  RH WIND       PRES   REMARKS
FARGO          CLEAR     48  38  68 W25G32    29.75R
6HR MIN TEMP:  48; 6HR MAX TEMP:  54; 6HR PCP:  0.01;

JAMESTOWN      MOCLDY    45  35  68 NW30G45   29.82R
$$





USA.gov is the U.S. government's official web portal to all federal, state and local government web resources and services.